Regional Weather Roundup
Issued by NWS

Home | Current Version | Previous Version | Text Only | Print | Product List | Glossary On
Versions: 1 2 3 4 5 6 7 8 9 10 11 12 13 14 15 16 17 18 19 20 21 22 23 24 25 26 27 28 29 30 31 32 33 34 35 36 37 38 39 40 41 42 43 44 45 46 47 48 49 50
000
ASUS44 KLUB 131910
RWRTX
WEST TEXAS WEATHER ROUNDUP
NATIONAL WEATHER SERVICE LUBBOCK TX
100 PM CST SAT FEB 13 2016

NOTE: "FAIR" INDICATES FEW OR NO CLOUDS BELOW 12,000 FEET WITH NO
SIGNIFICANT WEATHER AND/OR OBSTRUCTIONS TO VISIBILITY.

TXZ004-006>008-010-012-014-016-OKZ002-132000-
TEXAS PANHANDLE/OKLAHOMA PANHANDLE

CITY           SKY/WX    TMP DP  RH WIND       PRES   REMARKS
AMARILLO       SUNNY     59  36  42 S31G39    30.15F
BORGER         SUNNY     60  36  40 SW17G26   30.13F
CANADIAN       SUNNY     52  32  46 S17       30.19F
DALHART        SUNNY     66  29  24 SW21G32   30.10F
DUMAS          SUNNY     61  33  35 SW24G33   30.11F
GUYMON         SUNNY     58  33  39 S15G32    30.07F
PAMPA          SUNNY     55  34  44 S18       30.17F
PERRYTON       SUNNY     53  33  46 S22G28    30.13F
$$

TXZ026-029-035-045-048-132000-
SOUTHERN PANHANDLE/SOUTH PLAINS/ROLLING PLAINS

CITY           SKY/WX    TMP DP  RH WIND       PRES   REMARKS
CHILDRESS      SUNNY     53  32  44 S9        30.24F
SEMINOLE       SUNNY     65  37  35 S12G17    30.23F
LUBBOCK        PTSUNNY   65  39  38 S22G28    30.20F
PLAINVIEW      SUNNY     61  37  41 SW15G23   30.19F
SNYDER           N/A     65  43  44 S15G22    30.23F
$$

TXZ052-054-060>062-072-078-127-140-154-169-132000-
PERMIAN BASIN/CONCHO VALLEY/BIG COUNTRY/EDWARDS PLATEAU

CITY           SKY/WX    TMP DP  RH WIND       PRES   REMARKS
ABILENE        SUNNY     68  45  43 S14       30.24F
BIG SPRING     SUNNY     67  42  39 S18G24    30.25F
BROWNWOOD      SUNNY     68  45  42 S9        30.27F
JUNCTION       SUNNY     74  42  31 S12       30.26F
MIDLAND        SUNNY     68  41  37 SW17      30.23F
ODESSA         SUNNY     70  40  33 S17       30.23F
SAN ANGELO     SUNNY     74  46  36 S17G24    30.23F
SONORA         SUNNY     73  45  35 S13G23    30.29F
SWEETWATER     SUNNY     68  44  42 S17       30.25F
WINK           SUNNY     66  35  31 SE9       30.20F
$$

TXZ055-058-074-075-080-082-132000-
FAR WEST/SOUTHWEST MOUNTAINS/TRANS PECOS

CITY           SKY/WX    TMP DP  RH WIND       PRES   REMARKS
ALPINE         SUNNY     74  17  11 S15G24    30.31F
DRYDEN           N/A     70  44  39 S10       30.23F
EL PASO        MOSUNNY   67  13  12 S7        30.21F
FORT STOCKTON  SUNNY     71  31  22 E6        30.21F
GUADALUPE PASS SUNNY     65  17  15 SW14      30.28F
MARFA          SUNNY     71  17  12 S14       30.29F
PECOS          SUNNY     62  32  33 NE3       30.21F
PRESIDIO       FAIR      73  20  13 CALM      30.21F
$$

TXZ014-016-019-021>030-083-132000
TEXAS TECH WEST TEXAS MESONET/TEXAS PANHANDLE/NORTHERN SOUTH PLAINS

CITY           SKY/WX    TMP DP  RH WIND       PRES   REMARKS
ABERNATHY 5ENE   N/A     63  38  40 S21       30.20F
AMARILLO 9NNE    N/A     62  37  38 S18       30.13F
AMARILLO 7SSE    N/A     60  37  42 S15       30.17F
AMHERST 1NE      N/A     63  37  37 S16       30.19F
BOOTLEG 11WNW    N/A     61  31  32 S17       30.18F
CANADIAN 6E      N/A     51  30  43 S16       30.16F
CAPROCK CYN SP   N/A     55  34  45 SE10      30.22F
CHILDRESS 2NNE   N/A     55  32  41 S7        30.24F
CLARENDON 2WSW   N/A     48  31  51 S10       30.21F
CLAUDE 12SW      N/A     58  37  45 S18       30.17F
DIMMITT 2NE      N/A     59  36  43 S18       30.18F
FLOYDADA 2NNE    N/A     60  37  42 S18       30.21F
FRIONA 2NE       N/A     62  33  34 S20       30.18F
GOODLETT 3W      N/A     55  31  40 SE7       30.24F
HART 3N          N/A     60  37  43 S20       30.19F
HEREFORD 2NW     N/A     61  33  34 S17       30.17F
MCLEAN 1E        N/A     51  30  44 S17       30.19F
MEMPHIS 1NE      N/A     52  32  46 S6        30.24F
MULESHOE 2SSW    N/A     64  32  30 S12       30.19F
OLTON 6S         N/A     62  37  38 S18       30.20F
PALO DURO SP     N/A     61  37  41 S16       30.19F
PAMPA 2E         N/A     51  34  52 S23       30.17F
PLAINVIEW 1S     N/A     60  39  46 S17       30.20F
SILVERTON 7ESE   N/A     61  37  39 S17G28    30.20F
TULIA 2ENE       N/A     59  40  48 S21       30.19F
TURKEY 2WSW      N/A     55  34  46 SE9       30.21F
UMBARGER 3NNE    N/A     61  35  37 S22       30.16F
$$

TXZ033>036-039>041-045>048-132000
TEXAS TECH WEST TEXAS MESONET/SOUTH PLAINS

CITY           SKY/WX    TMP DP  RH WIND       PRES   REMARKS
AIKEN 3WSW       N/A     61  39  44 S17       30.21F
ANDREWS 2NE      N/A     67  37  33 S14       30.22F
ANTON 6SSW       N/A     64  39  39 S18       30.20F
BROWNFIELD 2S    N/A     63  38  39 S15       30.22F
DENVR CTY 7WNW   N/A     64  34  33 S12       30.21F
GAIL 2ESE        N/A     66  40  38 S14       30.22F
LAMESA 2SE       N/A     65  42  41 S17       30.23F
LEVELLAND 4S     N/A     65  35  33 S17       30.21F
LUBBOCK 3WNW     N/A     65  38  35 S15       30.21F
MORTON 1ENE      N/A     63  33  32 S17       30.20F
ODONNELL 1N      N/A     65  37  34 S16       30.22F
PLAINS 3N        N/A     64  35  34 S13       30.22F
RALLS 1SE        N/A     59  37  42 S15       30.23F
REESE CENTER     N/A     64  37  36 S18       30.21F
SEAGRAVES 1SW    N/A     64  37  37 S13       30.22F
SEMINOLE 2NNE    N/A     64  36  35 S13       30.22F
SLATON 2NE       N/A     64  40  42 S20       30.22F
SNYDER 3E        N/A     69  44  41 S14       30.22F
SUNDOWN 8SW      N/A     63  35  35 S15       30.21F
TAHOKA 3NNE      N/A     67  39  35 S15       30.22F
WOLFFORTH 6SSW   N/A     64  38  38 S17       30.22F
$$

TXZ031-032-036>038-042>044-132000-
TEXAS TECH WEST TEXAS MESONET/ROLLING PLAINS

CITY           SKY/WX    TMP DP  RH WIND       PRES   REMARKS
ASPERMONT 3NE    N/A     62  36  38 SE7       30.23F
FLUVANNA 3WNW    N/A     64  39  39 S16       30.23F
GRAHAM 5SSW      N/A     63  38  39 S13       30.22F
GUTHRIE 10WSW    N/A     58  35  41 SE12      30.23F
HASKELL 1NW      N/A     59  35  40 SE5       30.24F
JAYTON 1SSE      N/A     61  37  41 SE10      30.23F
KNOX CITY 3NW    N/A     59  35  40 S9        30.26F
LK A HENRY 1NW   N/A     68  41  37 S8        30.21F
NORTHFIELD 1S    N/A     56  34  44 SE8       30.23F
ODELL 4ENE       N/A     52  33  48 SE12      30.28F
PADUCAH 10SW     N/A     58  35  43 S12       30.23F
POST 1NE         N/A     66  39  36 S14       30.22F
RRING SPRGS 3N   N/A     59  38  45 S13       30.22F
SPUR 1W          N/A     58  36  44 S9        30.22F
WEINERT 2NNE     N/A     60  36  39 S3        30.25F
WHITE RVR 6NE    N/A     59  35  40 S13       30.22F
$$

TXZ052-054-060>062-072-078-127-140-154-169-132000-
TEXAS TECH WEST TEXAS MESONET/PERMIAN BASIN/
CONCHO VALLEY/BIG COUNTRY/EDWARDS PLATEAU

CITY           SKY/WX    TMP DP  RH WIND       PRES   REMARKS
COYANOSA 2N      N/A     66  32  28 E2        30.21F
JUNCTION 1SSW    N/A     75  44  32 S10       30.27F
MERTZON 3NNE     N/A     74  45  35 S18       30.25F
SAN ANGELO 7NW   N/A     73  44  34 S12       30.24F
STRLNG CT 4WSW   N/A     71  46  41 SE10      30.23F
ST LAWRNCE 5SW   N/A     71  42  34 S21       30.23F
SWEETWATR 11SW   N/A     68  45  43 S17       30.24F
WALL 1E          N/A     74  44  34 S17       30.25F
$$

TXZ055-058-074-075-080-082-132000-
TEXAS TECH WEST TEXAS MESONET/FAR WEST/SOUTHWEST MOUNTAINS/TRANS PECOS

CITY           SKY/WX    TMP DP  RH WIND       PRES   REMARKS
PRSMN GAP BBNP   N/A     73  25  16 S1        30.23F
GUADLPE MTN NP   N/A     64  11  12 SW12      30.28F
$$



USA.gov is the U.S. government's official web portal to all federal, state and local government web resources and services.